Volver al catálogo

USA 485

ActivoMilitarVLEO
NORAD 62756·PAYLOAD·🇺🇸 United States

Lanzado Jan 21, 2025 desde Cape Canaveral Space Force Station

Loading…

Próximos Pases (próximas 24 horas)

TLE

ActualizadoSource: Space-Track

Época: Sep 14, 2026, 13:08 UTC

1 62756U 25014X   26257.54737820  .00198233  00000-0  11219-2 0  9998
2 62756  42.9998 287.5930 0001414 283.4980  76.5732 15.77731379 94875

Sigue USA 485 en tiempo real con AllMySat

Download on the App Store